DECAYED
Showing default

PLEIADES YEARLING, 56207 (Decayed)

Orbit data source: Space-Track

PLEIADES YEARLING, 56207 was a payload satellite owned by Bronco Space (US) in LEO that was launched on Sat, 15 Apr 2023 UTC via an FALCON 9 launch vehicle from the Air Force Western Test Range (AFWTR). Payload-class satellites include a variety of spacecraft equipped with specific instruments for various scientific and technological missions. These include communications satellites like Starlink; space stations such as the ISS; scientific satellites like the Hubble; Earth observation satellites from companies like Planet Labs, Umbra, and HawkEye 360; GPS; miniature CubeSats for education and research; and military/defense satellites.

Not visible in the next 10 days
Identifier
56207, 2023-054AF
Orbit
Decayed
Country
Flag of USUS
Related business
Manufacturer
BRONC/STANSI
Mission
Decayed Amateur Technology
Bus & Motor
CUBESAT 1U, Unknown motor
Mass
1 kg wet, 1 kg dry
Launch date (UTC)
2023-04-15 (2 years ago)
Launch vehicle
FALCON 9
Launch site
Air Force Western Test Range (AFWTR)
Object type
Payload
Rocket body
Debris
Shape & HBR
Box, 0.1 m
Radar Cross Section
0.015 m², Small (<0.1 m²)

Expand to show TLE details & history
Last TLE update: 1 year ago

TLE from 1 year ago
0 PLEIADES YEARLING
1 56207U 23054AF  24224.01913292  .05405182  24473-5  18391-2 0  9999
2 56207  97.3351 130.3840 0009655 199.4380 160.6545 16.25467043 75117
Epoch: 2024-08-11T00:27Z
TLE epoch observation values (Epoch: 2024-08-11T00:27:33.084Z)
Latitude
-0.00002°
Longitude
163.5253°
Altitude
213.983 km
Speed
7.775 km/s
True Right ascension
08h 41m 32s
True Declination
0° 00' 00"
Sunlit
Object was in daylight at epoch
Visualization orbit readout
Latitude
Unknown
Longitude
Unknown
Altitude
Unknown
Speed
Unknown
Apparent Right ascension
Unknown
Apparent Declination
Unknown
Sunlit
N/A
Visualization observer readout
Local Sidereal Time
16:53:33
Azimuth
Unknown
Elevation
Unknown
Doppler factor
Unknown
Orbital elements
Apogee altitude
207.926 km
Perigee altitude
195.221 km
Semi-major axis
6,579.711 km
Eccentricity
0.00097
Inclination
97.3351°
RAAN
130.384°
Arg. of periapsis
199.438°
True anomaly
160.69111°
Mean anomaly
160.6545°
Eccentric anomaly
160.67281°
Mean motion
4.06661 °/min
Orbital period
88.53 mins
BSTAR
0.0018391
Loading maneuver chart data...
Computing Atmospheric mass density...
Loading historical data...
Loading historical data...
Loading historical data...
Loading historical data...
Loading historical data...
Loading historical data...
Loading historical data...

Documentation

Showing up to 5 results
|